{"data":{"norad_id":50478,"epoch":"2026-05-25T02:14:12.568128Z","epoch_age_seconds":61004,"freshness":"FRESH","line1":"1 50478U 21132K   26145.09320102 -.00000223  00000+0 -66377-3 0  9998","line2":"2 50478  87.8918  25.6514 0001595  90.0009 270.1302 13.11418632212581","mean_motion":13.11418632,"eccentricity":0.0001595,"inclination_deg":87.8918,"raan_deg":25.6514,"arg_perigee_deg":90.0009,"mean_anomaly_deg":270.1302,"bstar":-0.00066377,"rev_number":21258,"period_min":109.80475378819,"perigee_km":1216.464652029,"apogee_km":1218.8877164347,"semimajor_km":7595.8131842318,"source":"CELESTRAK","updated_at":"2026-05-25T13:38:22.529664Z"}}